Probability
0 0 0 0 0 0 0 0 0 0 0 0 0 0 0 0 0 0 0 0 0 0 0 0 0 0 0 0 0 0 0 0 0 0 0 0 0 0 0 0 0 0 0
0 0 0 0 0 0 0 0 0 0 0 0 0 0 0 0 0 0 0 0 0 0 0 0 0 0 0 0 0 0 0 0 0 0 0 0 0 0 0 0 0 0 0
0 0 0 0 0 0 0 0 0 0 0 0 0 0 0 0 0 0 0 0 0 0 0 0 0 0 0 0 0 0 0 0 0 0 0 0 0 0 0 0 0 0 0
0 0 0 0 0 0 0 0 0 0 0 0 0 0 0 0 0 0 0 0 0 1 0 0 0 0 0 0 0 0 0 0 0 0 0 0 0 0 0 0 0 0 0
0 0 0 0 0 0 0 0 0 0 0 0 0 0 0 0 0 0 0 0 0 0 0 0 0 0 0 0 0 0 0 0 0 0 0 0 0 0 0 0 0 0 0
0 0 0 0 0 0 0 0 0 0 0 0 0 0 0 0 0 0 0 0 0 0 0 0 0 0 0 0 0 0 0 0 0 0 0 0 0 0 0 0 0 0 0
0 0 0 0 0 0 0 0 0 0 0 0 0 0 0 0 0 0 0 0 0 0 0 0 0 0 0 0 0 0 0 0 0 0 0 0 0 0 0 0 0 0 0
0 0 0 0 0 0 0 0 0 0 0 0 0 0 0 0 0 0 0 0 0 0 0 0 0 0 0 0 0 0 0 0 0 0 0 0 0 0 0 0 0 0 0
0 0 0 0 0 0 0 0 0 0 0 0 0 0 0 0 0 0 0 0 0 0 0 0 0 0 0 0 0 0 0 0 0 0 0 0 0 0 0 0 0 0 0
0 0 0 0 0 0 0 0 0 0 0 0 0 0 0 0 0 0 0 0 0 0 0 0 0 0 0 0 0 0 0 0 0 0 0 0 0 0 0 0 0 0 0
0 0 0 0 0 0 0 0 0 0 0 0 0 0 0 0 0 0 0 0 0 0 0 0 0 0 0 0 0 0 0 0 0 0 0 0 0 0 0 0 0 0 0
0 0 0 0 0 0 0 0 0 0 0 0 0 0 0 0 0 0 0 0 0 0 0 0 0 0 0 0 0 0 0 0 0 0 0 0 0 0 0 0 0 0 0
0 0 0 0 0 0 0 0 0 0 0 0 0 0 0 0 1 0 0 0 0 0 0 0 0 0 0 0 0 0 0 0 0 0 0 0 0 0 0 0 0 0 0
0 0 0 0 0 0 0 0 0 0 0 0 0 0 0 0 0 0 0 0 0 0 0 0 0 0 0 0 0 0 0 0 0 0 0 0 0 0 0 0 0 0 0
0 0 0 0 0 0 0 0 0 0 0 0 0 0 0 0 0 0 0 0 0 0 0 0 0 0 0 0 0 0 0 0 0 0 0 0 0 0 0 0 0 0 0
0 0 0 0 0 0 0 0 0 0 0 0 0 0 0 0 0 0 0 0 0 0 0 0 0 0 0 0 0 0 0 0 0 0 0 0 0 0 0 0 0 0 0
0 0 0 0 0 0 0 0 0 0 0 0 0 0 0 0 0 0 0 0 0 0 0 0 0 0 0 0 0 0 0 0 0 0 0 0 0 0 0 0 0 0 0
0 0 0 0 0 0 0 0 0 0 0 0 0 0 0 0 0 0 0 0 0 0 0 0 0 0 0 0 0 0 0 0 0 0 0 0 0 0 0 0 0 0 0
0 0 0 0 0 0 0 0 0 0 0 0 0 0 0 0 0 0 0 0 0 0 0 0 0 0 0 0 0 0 0 0 0 0 0 0 0 0 0 0 0 0 0
0 0 0 0 0 0 0 0 0 0 0 0 0 0 0 0 0 0 0 0 0 0 0 0 0 0 0 0 0 0 0 0 0 0 0 0 0 0 0 0 0 0 0
0 0 0 0 0 0 0 0 0 0 0 0 0 0 0 0 0 0 0 0 0 0 0 0 0 0 0 0 0 0 0 0 0 0 0 0 0 0 0 0 0 0 0
0 0 0 0 0 0 0 0 0 0 0 0 0 0 0 0 0 0 0 0 0 0 0 0 0 0 0 0 0 0 0 0 0 0 0 0 0 0 0 0 0 0 0
0 0 0 0 0 0 0 0 0 0 0 0 0 0 0 0 0 0 0 0 0 0 0 0 0 0 0 0 0 0 0 0 0 0 0 0 0 0 0 0 0 0 0
0 0 0 0 0 0 0 0 0 0 0 0 0 0 0 0 0 0 0 0 0 0 0 0 0 0 0 0 0 0 0 0 0 0 0 0 0 0 0 0 0 0 0
0 0 0 0 0 0 0 0 0 0 0 0 0 0 0 0 0 0 0 0 0 0 0 0 0 0 0 0 0 0 0 0 0 0 0 0 0 0 0 0 0 0 0
0 0 0 0 0 0 0 0 0 0 0 0 0 0 0 0 0 0 0 0 0 0 0 0 0 0 0 0 0 0 0 0 0 0 0 0 0 0 0 0 0 0 0
Wind_Speed
3 2 2 3 3 4 3 3 3 2 2 1 1 1 1 1 1 1 2 2 2 2 2 1 1 1 1 2 2 3 3 2 2 2 1 1 2 1 1 1 1 1 1
3 3 3 3 3 3 3 3 3 2 2 1 1 1 1 1 1 2 3 3 3 2 2 1 1 1 1 2 2 2 2 2 2 2 2 1 1 1 1 1 1 1 1
3 2 2 2 3 3 2 2 2 2 2 2 2 2 2 1 1 2 2 3 3 3 2 2 2 1 1 2 2 2 3 2 2 1 3 3 2 1 1 1 0 0 1
2 1 1 1 2 2 2 2 2 3 3 2 3 2 2 1 1 1 1 2 2 2 2 2 1 1 1 1 1 1 1 2 2 1 0 1 2 2 1 1 1 1 0
2 1 1 1 1 1 2 2 2 3 3 3 3 2 2 1 1 2 2 2 1 2 2 1 1 1 1 0 1 1 1 1 2 2 1 1 1 1 2 2 1 1 1
1 1 1 0 1 2 2 2 2 3 3 3 3 2 2 2 2 2 1 1 1 1 2 1 1 1 0 0 0 1 2 1 1 1 2 2 2 2 2 2 2 2 1
1 1 1 1 1 2 2 2 2 2 2 2 2 2 1 1 1 1 1 1 1 1 2 1 0 0 0 0 0 1 1 1 2 2 1 1 1 1 2 2 1 1 1
1 1 1 1 0 0 1 1 2 2 2 2 2 2 2 1 1 1 1 1 1 1 2 1 1 1 1 0 0 1 1 1 2 2 2 1 1 1 1 2 2 1 1
2 2 2 1 1 0 0 1 1 1 1 1 1 2 2 1 1 1 1 1 1 1 2 1 1 1 1 0 1 1 1 1 1 2 2 1 1 1 1 1 2 2 2
1 1 1 1 1 1 0 1 1 1 1 1 1 1 1 1 1 1 1 1 2 1 1 1 1 1 1 0 0 0 1 1 1 1 1 1 1 1 1 1 1 2 3
2 2 1 1 0 0 0 0 0 1 1 1 1 1 1 1 1 1 1 1 1 1 1 1 0 0 0 0 0 1 1 1 1 1 1 2 1 1 1 1 1 1 2
2 1 1 1 0 0 0 0 0 0 1 1 1 1 1 1 1 1 1 1 1 1 1 1 1 1 1 1 1 1 1 1 2 2 2 2 1 2 2 2 2 2 2
1 1 1 1 1 1 0 0 0 0 0 0 1 1 1 0 1 1 1 1 1 2 2 1 1 1 1 1 1 1 1 2 2 2 3 3 2 2 2 2 2 2 2
2 2 2 2 2 2 1 1 0 1 1 0 0 1 1 1 1 1 1 1 1 2 2 2 1 2 2 2 2 1 2 2 2 2 3 3 3 3 3 2 2 2 2
2 3 3 3 2 2 1 1 1 1 1 1 1 1 2 1 1 1 1 2 2 2 2 2 2 2 2 2 2 2 2 2 2 2 2 2 3 3 3 3 2 2 2
4 4 3 3 3 3 3 2 1 1 0 1 1 1 1 1 1 2 2 2 2 2 2 2 2 2 2 3 4 3 2 2 3 2 2 2 2 3 4 4 4 4 4
4 4 4 4 4 4 3 3 2 1 1 1 1 1 1 1 2 2 2 2 2 2 2 2 2 2 3 5 4 3 2 2 2 3 3 2 2 3 3 3 4 4 5
4 4 4 4 3 3 2 2 1 2 1 1 1 1 1 2 2 2 2 2 2 2 2 3 2 3 3 4 4 3 2 2 2 2 3 3 3 3 3 3 3 3 3
5 4 4 3 2 3 3 2 2 2 2 2 2 2 2 2 2 2 3 2 2 2 2 3 2 2 3 4 3 3 2 2 2 2 2 3 3 5 5 3 3 3 3
3 2 1 2 2 2 3 3 3 2 3 3 3 2 2 3 3 3 3 3 2 2 2 3 2 3 3 4 4 3 2 2 2 2 2 4 5 5 5 4 4 4 3
2 1 2 2 2 2 3 3 3 4 3 2 2 3 3 3 3 3 2 2 2 2 2 3 3 3 3 5 5 4 2 2 2 2 2 3 5 5 5 4 3 5 3
1 1 1 1 1 2 3 3 4 3 2 2 2 3 3 3 2 2 2 2 2 2 2 2 3 3 3 4 5 5 5 4 3 3 2 3 5 5 5 4 4 3 1
2 1 2 1 1 2 3 4 3 1 1 2 3 3 3 3 2 2 3 2 2 2 2 2 3 3 3 3 6 6 6 5 3 3 5 5 6 4 3 3 3 2 2
2 1 1 2 2 2 3 3 2 1 2 3 3 3 3 3 2 2 2 2 3 3 3 3 4 3 3 3 3 3 3 4 3 2 2 4 4 3 2 1 2 1 1
1 2 3 3 3 2 2 2 1 2 2 3 3 3 3 3 3 3 3 4 4 5 5 4 4 4 5 6 7 5 3 3 3 1 1 0 0 1 1 1 1 1 1
2 2 3 3 3 2 3 2 2 2 3 3 3 3 3 3 3 3 4 6 6 8 9 9 7 6 8 9 9 9 8 6 4 2 1 2 2 3 3 2 2 2 2
Wind_Direction
292 351 13 20 26 22 24 28 42 40 56 88 127 126 115 92 73 65 67 75 72 83 97 110 125 127 147 147 138 138 133 119 119 105 62 23 33 33 52 54 52 34 29
323 357 12 21 24 19 14 22 36 41 51 60 118 124 117 103 87 65 54 59 67 68 80 98 128 150 144 129 125 129 138 138 141 134 123 5 342 352 28 45 65 31 27
252 297 351 358 11 13 3 13 31 42 43 50 75 74 75 70 66 52 46 39 56 65 66 70 79 96 150 165 158 150 146 159 167 138 146 159 212 272 336 3 48 49 32
269 271 294 344 351 347 356 21 41 48 46 58 79 90 92 87 51 57 70 55 62 67 65 69 84 88 96 150 178 158 154 151 171 177 115 167 160 164 242 301 327 20 351
239 256 255 247 325 356 14 25 51 53 47 59 80 95 79 71 71 63 67 59 56 61 60 79 102 99 86 88 141 146 152 164 177 176 161 137 130 165 178 237 274 321 294
240 253 299 9 31 28 37 42 58 52 47 59 69 89 93 76 74 57 50 41 32 39 30 51 78 76 70 131 163 171 171 180 175 172 169 168 171 182 183 212 234 264 279
217 237 320 355 32 32 37 46 64 53 42 54 54 61 77 87 91 72 47 27 16 2 343 353 28 69 5 7 123 154 171 177 173 188 197 197 208 185 179 199 231 267 292
203 206 215 220 59 40 52 60 76 66 48 54 43 43 55 58 48 40 42 27 349 330 335 327 339 27 56 43 127 159 175 179 188 197 192 182 201 192 196 191 185 252 278
208 213 223 211 193 251 9 65 93 70 54 51 51 48 51 48 38 28 28 19 355 345 357 349 352 5 36 106 166 165 179 178 197 206 200 194 198 193 225 213 201 202 242
249 260 241 229 200 204 154 61 63 79 62 53 43 45 46 42 40 45 29 6 350 350 352 354 1 1 12 30 160 181 191 185 199 195 193 210 219 202 205 211 226 223 221
226 228 240 253 158 95 111 103 54 39 34 24 21 32 27 35 44 39 358 349 349 340 327 313 292 297 289 250 205 223 216 203 215 203 200 227 222 211 214 209 212 226 219
205 204 203 175 105 48 288 167 100 41 357 356 359 353 8 28 32 6 346 349 329 323 314 309 294 286 289 259 226 220 218 212 217 217 217 231 219 222 223 212 213 217 210
191 194 191 200 209 221 237 324 148 247 319 352 351 342 338 349 351 335 333 334 324 319 318 317 291 283 274 259 248 220 218 223 225 220 221 229 214 224 229 229 223 219 217
205 205 214 222 219 212 207 221 283 336 346 341 315 316 311 298 303 312 313 312 305 295 294 296 275 273 271 259 246 229 220 223 227 223 221 223 217 222 222 224 228 217 208
237 223 220 220 214 217 224 233 268 317 359 348 312 305 321 334 341 329 324 324 319 307 297 298 288 276 267 248 240 238 225 219 225 229 226 227 229 227 224 217 212 208 215
249 240 232 221 217 217 217 223 246 279 307 283 304 321 325 326 328 322 316 315 313 312 307 294 282 280 268 262 262 256 241 230 223 224 229 230 233 235 237 229 226 219 215
243 240 236 227 223 218 208 210 217 227 247 273 296 317 316 308 309 312 315 308 304 303 300 295 283 276 271 275 267 263 248 235 233 224 224 232 237 235 233 235 242 244 240
234 237 233 225 220 206 198 191 180 194 213 248 275 295 302 299 302 299 292 295 296 290 288 287 285 281 276 276 275 283 266 233 234 227 222 221 229 228 227 225 234 242 248
230 231 226 212 200 193 179 168 186 203 216 240 258 265 270 277 282 283 287 290 290 291 292 292 286 282 286 278 277 284 255 242 243 236 227 222 228 236 235 225 233 252 266
235 232 202 164 180 190 166 172 200 215 233 244 254 256 256 257 262 271 281 286 281 281 290 295 297 285 285 281 280 281 251 243 246 247 243 237 237 238 237 223 220 239 256
232 188 160 178 195 180 166 189 213 231 243 257 261 258 255 259 258 266 274 274 275 280 283 289 293 286 282 279 276 270 258 239 240 243 249 251 249 245 243 240 226 237 249
205 158 170 210 192 172 177 210 232 246 255 251 255 259 261 261 259 257 267 268 259 261 267 279 289 287 282 276 274 271 265 259 241 239 244 250 254 250 252 253 242 243 236
205 183 189 220 218 192 196 224 245 248 243 249 254 261 265 263 259 247 251 256 247 248 259 262 272 281 284 281 280 278 274 267 262 245 245 252 261 260 263 264 259 245 191
212 181 179 214 237 227 238 245 260 235 226 243 256 256 255 264 261 255 244 240 238 245 252 256 264 274 279 275 271 272 267 261 259 261 262 263 262 261 263 252 263 237 213
218 192 203 223 239 241 251 268 253 219 236 247 255 257 253 252 258 258 249 249 244 238 247 250 251 255 265 266 268 272 267 249 238 246 276 261 230 231 233 243 241 219 203
218 220 229 239 249 248 258 259 236 217 225 245 247 246 252 253 254 264 282 271 268 271 269 267 266 267 267 274 273 272 273 266 239 227 209 220 223 227 226 224 229 220 214